,,Stat5,,Stat1,,Stat2,,Stat3,,Stat4,,Wind1,,Wind1,
time,status,PA1M_AVG,status,PR1M_SUM,status,RH1M_AVG,status,SR1M_AVG,status,TA1M_AVG,status,W1dAve1m,status,W1sAve1m,
2002-02-25, 00:00:00,VALID,919.189,VALID,0,VALID,94.2297,VALID,-0.0509425,VALID,19.7124,VALID,116,VALID,1.03405,
2002-02-25, 00:01:00,VALID,919.181,VALID,0,VALID,93.9487,VALID,-0.0509425,VALID,19.7281,VALID,102,VALID,1.10464,
2002-02-25, 00:02:00,VALID,919.185,VALID,0,VALID,93.6664,VALID,-0.0169808,VALID,19.729,VALID,90,VALID,1.17259,
2002-02-25, 00:03:00,VALID,919.191,VALID,0,VALID,93.969,VALID,-0.0509425,VALID,19.7412,VALID,104,VALID,1.08051,
2002-02-25, 00:04:00,VALID,919.193,VALID,0,VALID,93.9144,VALID,-0.0169808,VALID,19.7827,VALID,111,VALID,1.3904,
2002-02-25, 00:05:00,VALID,919.194,VALID,0,VALID,93.5062,VALID,-0.0169808,VALID,19.8317,VALID,95,VALID,1.53442,
2002-02-25, 00:06:00,VALID,919.207,VALID,0,VALID,93.4362,VALID,-0.0339617,VALID,19.9164,VALID,88,VALID,1.3715,
2002-02-25, 00:07:00,VALID,919.192,VALID,0,VALID,92.6249,VALID,-0.0849042,VALID,19.99,VALID,78,VALID,1.28568,
2002-02-25, 00:08:00,VALID,919.187,VALID,0,VALID,92.4368,VALID,-0.0169808,VALID,20.0777,VALID,61,VALID,1.41098,
2002-02-25, 00:09:00,VALID,919.168,VALID,0,VALID,91.9866,VALID,-0.0169808,VALID,20.1515,VALID,53,VALID,1.08951,
2002-02-25, 00:10:00,VALID,919.15,VALID,0,VALID,91.7196,VALID,-0.0169808,VALID,20.1835,VALID,47,VALID,1.08635,
2002-02-25, 00:11:00,VALID,919.145,VALID,0,VALID,91.5123,VALID,0,VALID,20.1997,VALID,60,VALID,1.24067,
2002-02-25, 00:12:00,VALID,919.151,VALID,0,VALID,91.628,VALID,0,VALID,20.1865,VALID,103,VALID,1.16139,
2002-02-25, 00:13:00,VALID,919.173,VALID,0,VALID,91.6471,VALID,0,VALID,20.1545,VALID,135,VALID,1.44812,
2002-02-25, 00:14:00,VALID,919.193,VALID,0,VALID,91.7831,VALID,-0.0339617,VALID,20.151,VALID,131,VALID,1.59746,
2002-02-25, 00:15:00,VALID,919.224,VALID,0,VALID,91.4563,VALID,-0.0339617,VALID,20.2029,VALID,126,VALID,1.53885,
2002-02-25, 00:16:00,VALID,919.247,VALID,0,VALID,91.3305,VALID,-0.0169808,VALID,20.229,VALID,132,VALID,1.28789,
2002-02-25, 00:17:00,VALID,919.271,VALID,0,VALID,91.3063,VALID,-0.0509425,VALID,20.2514,VALID,124,VALID,1.08934,
2002-02-25, 00:18:00,VALID,919.281,VALID,0,VALID,91.2478,VALID,-0.0339617,VALID,20.2579,VALID,140,VALID,1.06312,
2002-02-25, 00:19:00,VALID,919.271,VALID,0,VALID,91.2961,VALID,-0.0169808,VALID,20.2805,VALID,157,VALID,0.684095,
2002-02-25, 00:20:00,VALID,919.28,VALID,0,VALID,91.2084,VALID,-0.0169808,VALID,20.2735,VALID,161,VALID,0.507401,
2002-02-25, 00:21:00,VALID,919.283,VALID,0,VALID,91.2478,VALID,-0.0169808,VALID,20.277,VALID,170,VALID,0.617388,
2002-02-25, 00:22:00,VALID,919.274,VALID,0,VALID,91.2236,VALID,-0.0169808,VALID,20.2899,VALID,159,VALID,0.554492,
2002-02-25, 00:23:00,VALID,919.274,VALID,0,VALID,91.1181,VALID,-0.0339617,VALID,20.3128,VALID,156,VALID,0.246622,
2002-02-25, 00:24:00,VALID,919.262,VALID,0,VALID,90.9452,VALID,-0.0169808,VALID,20.3061,VALID,141,VALID,0.200586,
2002-02-25, 00:25:00,VALID,919.261,VALID,0,VALID,90.4022,VALID,0.0169808,VALID,20.2643,VALID,49,VALID,0.797075,
2002-02-25, 00:26:00,VALID,919.271,VALID,0,VALID,90.9388,VALID,-0.0169808,VALID,20.1378,VALID,34,VALID,1.49198,
2002-02-25, 00:27:00,VALID,919.266,VALID,0,VALID,91.876,VALID,0,VALID,20.0471,VALID,31,VALID,1.27183,
2002-02-25, 00:28:00,VALID,919.248,VALID,0,VALID,92.2117,VALID,-0.0169808,VALID,19.9959,VALID,57,VALID,0.689904,
2002-02-25, 00:29:00,VALID,919.224,VALID,0,VALID,92.4469,VALID,0,VALID,19.9895,VALID,56,VALID,0.65024,
2002-02-25, 00:30:00,VALID,919.196,VALID,0,VALID,92.7038,VALID,-0.0169808,VALID,20.0188,VALID,54,VALID,0.625586,
2002-02-25, 00:31:00,VALID,919.19,VALID,0,VALID,92.3312,VALID,-0.0509425,VALID,20.0737,VALID,56,VALID,0.865921,
2002-02-25, 00:32:00,VALID,919.184,VALID,0,VALID,92.0718,VALID,-0.0509425,VALID,20.0769,VALID,47,VALID,1.02129,
2002-02-25, 00:33:00,VALID,919.203,VALID,0,VALID,92.171,VALID,0,VALID,20.0764,VALID,54,VALID,0.831931,
2002-02-25, 00:34:00,VALID,919.217,VALID,0,VALID,92.1494,VALID,0.0169808,VALID,20.0826,VALID,58,VALID,0.761308,
2002-02-25, 00:35:00,VALID,919.224,VALID,0,VALID,92.1545,VALID,0,VALID,20.1025,VALID,54,VALID,0.467949,
2002-02-25, 00:36:00,VALID,919.233,VALID,0,VALID,92.1519,VALID,0,VALID,20.1117,VALID,53,VALID,0.088199,
2002-02-25, 00:37:00,VALID,919.217,VALID,0,VALID,92.0985,VALID,0.0169808,VALID,20.1413,VALID,53,VALID,0,
2002-02-25, 00:38:00,VALID,919.202,VALID,0,VALID,91.9841,VALID,0,VALID,20.1545,VALID,53,VALID,0,
2002-02-25, 00:39:00,VALID,919.182,VALID,0,VALID,91.6547,VALID,-0.0339617,VALID,20.1607,VALID,53,VALID,0.129645,
2002-02-25, 00:40:00,VALID,919.128,VALID,0,VALID,91.2376,VALID,-0.0509425,VALID,20.1219,VALID,53,VALID,0.42207,
2002-02-25, 00:41:00,VALID,919.11,VALID,0,VALID,91.6725,VALID,-0.0169808,VALID,20.0993,VALID,53,VALID,0.524239,
2002-02-25, 00:42:00,VALID,919.076,VALID,0,VALID,92.0311,VALID,-0.0509425,VALID,20.0864,VALID,53,VALID,0.447163,
2002-02-25, 00:43:00,VALID,919.054,VALID,0,VALID,92.1951,VALID,0,VALID,20.0893,VALID,53,VALID,0.21875,
2002-02-25, 00:44:00,VALID,919.037,VALID,0,VALID,92.1417,VALID,-0.0339617,VALID,20.0861,VALID,69,VALID,0.25,
2002-02-25, 00:45:00,VALID,919.04,VALID,0,VALID,92.0972,VALID,-0.0169808,VALID,20.0894,VALID,116,VALID,0.345553,
2002-02-25, 00:46:00,VALID,919.038,VALID,0,VALID,92.2155,VALID,-0.0169808,VALID,20.1023,VALID,165,VALID,0.313672,
2002-02-25, 00:47:00,VALID,919.07,VALID,0,VALID,92.2625,VALID,0,VALID,20.1246,VALID,175,VALID,0.316934,
2002-02-25, 00:48:00,VALID,919.074,VALID,0,VALID,91.8861,VALID,-0.0509425,VALID,20.1475,VALID,178,VALID,0.0527344,
2002-02-25, 00:49:00,VALID,919.07,VALID,0,VALID,91.6267,VALID,-0.0509425,VALID,20.1644,VALID,178,VALID,0.00901442,
2002-02-25, 00:50:00,VALID,919.079,VALID,0,VALID,91.2999,VALID,-0.0509425,VALID,20.1642,VALID,178,VALID,0,
2002-02-25, 00:51:00,VALID,919.071,VALID,0,VALID,91.2783,VALID,-0.0509425,VALID,20.1249,VALID,178,VALID,0,
2002-02-25, 00:52:00,VALID,919.057,VALID,0,VALID,91.4754,VALID,-0.0509425,VALID,20.1256,VALID,178,VALID,0.00986842,
2002-02-25, 00:53:00,VALID,919.045,VALID,0,VALID,91.3406,VALID,-0.0339617,VALID,20.1251,VALID,178,VALID,0.0272436,
2002-02-25, 00:54:00,VALID,919.026,VALID,0,VALID,91.4767,VALID,-0.0339617,VALID,20.1154,VALID,241,VALID,0.294922,
2002-02-25, 00:55:00,VALID,919.019,VALID,0,VALID,91.6979,VALID,-0.0679233,VALID,20.0995,VALID,302,VALID,0.433488,
2002-02-25, 00:56:00,VALID,919.009,VALID,0,VALID,91.9268,VALID,-0.0339617,VALID,20.0508,VALID,291,VALID,0.475781,
2002-02-25, 00:57:00,VALID,918.999,VALID,0,VALID,91.6026,VALID,-0.0679233,VALID,19.9639,VALID,285,VALID,0.117989,
2002-02-25, 00:58:00,VALID,918.988,VALID,0,VALID,91.23,VALID,-0.0169808,VALID,19.8476,VALID,285,VALID,0.00493421,
2002-02-25, 00:59:00,VALID,918.969,VALID,0,VALID,90.9261,VALID,-0.0509425,VALID,19.7184,VALID,285,VALID,0.030649,
2002-02-25, 01:00:00,VALID,918.938,VALID,0,VALID,91.6153,VALID,-0.0339617,VALID,19.6115,VALID,285,VALID,0.0228207,
2002-02-25, 01:01:00,VALID,918.916,VALID,0,VALID,92.4698,VALID,-0.0679233,VALID,19.5668,VALID,285,VALID,0.089343,
2002-02-25, 01:02:00,VALID,918.916,VALID,0,VALID,93.365,VALID,-0.0339617,VALID,19.5407,VALID,333,VALID,0.266992,
2002-02-25, 01:03:00,VALID,918.901,VALID,0,VALID,93.5316,VALID,-0.0679233,VALID,19.5054,VALID,27,VALID,0.437289,
2002-02-25, 01:04:00,VALID,918.882,VALID,0,VALID,93.4286,VALID,-0.0509425,VALID,19.4016,VALID,28,VALID,0.583594,
2002-02-25, 01:05:00,VALID,918.863,VALID,0,VALID,93.0331,VALID,-0.0169808,VALID,19.2793,VALID,32,VALID,0.627604,
2002-02-25, 01:06:00,VALID,918.843,VALID,0,VALID,93.5087,VALID,-0.0339617,VALID,19.1494,VALID,42,VALID,0.971423,
2002-02-25, 01:07:00,VALID,918.816,VALID,0,VALID,94.9545,VALID,-0.0679233,VALID,19.1596,VALID,44,VALID,1.63882,
2002-02-25, 01:08:00,VALID,918.778,VALID,0,VALID,95.6272,VALID,-0.0339617,VALID,19.2016,VALID,51,VALID,1.89412,
2002-02-25, 01:09:00,VALID,918.757,VALID,0,VALID,95.6361,VALID,-0.0169808,VALID,19.2401,VALID,51,VALID,1.39864,
2002-02-25, 01:10:00,VALID,918.737,VALID,0,VALID,95.7544,VALID,-0.0339617,VALID,19.2756,VALID,63,VALID,1.14473,
2002-02-25, 01:11:00,VALID,918.705,VALID,0,VALID,95.5522,VALID,-0.0679233,VALID,19.2985,VALID,68,VALID,0.929899,
2002-02-25, 01:12:00,VALID,918.687,VALID,0,VALID,95.4238,VALID,0,VALID,19.3275,VALID,73,VALID,0.772266,
2002-02-25, 01:13:00,VALID,918.646,VALID,0,VALID,95.3627,VALID,-0.0169808,VALID,19.3531,VALID,55,VALID,0.775441,
2002-02-25, 01:14:00,VALID,918.625,VALID,0,VALID,95.0715,VALID,-0.0169808,VALID,19.3727,VALID,50,VALID,0.779811,
2002-02-25, 01:15:00,VALID,918.608,VALID,0,VALID,94.8261,VALID,-0.0679233,VALID,19.376,VALID,46,VALID,1.04347,
2002-02-25, 01:16:00,VALID,918.584,VALID,0,VALID,94.5909,VALID,-0.0339617,VALID,19.3822,VALID,48,VALID,0.902344,
2002-02-25, 01:17:00,VALID,918.565,VALID,0,VALID,94.7981,VALID,-0.0169808,VALID,19.4344,VALID,53,VALID,0.496995,
2002-02-25, 01:18:00,VALID,918.548,VALID,0,VALID,94.5718,VALID,-0.0169808,VALID,19.4858,VALID,92,VALID,0.631641,
2002-02-25, 01:19:00,VALID,918.524,VALID,0,VALID,94.1013,VALID,-0.0679233,VALID,19.5439,VALID,88,VALID,0.60473,
2002-02-25, 01:20:00,VALID,918.516,VALID,0,VALID,93.1209,VALID,-0.0339617,VALID,19.5603,VALID,90,VALID,0.666406,
2002-02-25, 01:21:00,VALID,918.514,VALID,0,VALID,93.0204,VALID,-0.0679233,VALID,19.5278,VALID,104,VALID,0.731771,
2002-02-25, 01:22:00,VALID,918.496,VALID,0,VALID,93.5825,VALID,-0.0509425,VALID,19.5121,VALID,106,VALID,1.0148,
2002-02-25, 01:23:00,VALID,918.475,VALID,0,VALID,93.8126,VALID,-0.0679233,VALID,19.5608,VALID,109,VALID,0.577925,
2002-02-25, 01:24:00,VALID,918.457,VALID,0,VALID,93.51,VALID,-0.0679233,VALID,19.5867,VALID,110,VALID,0.340255,
2002-02-25, 01:25:00,VALID,918.442,VALID,0,VALID,93.1145,VALID,-0.0679233,VALID,19.5864,VALID,111,VALID,0.180288,
2002-02-25, 01:26:00,VALID,918.431,VALID,0,VALID,92.5537,VALID,-0.0509425,VALID,19.5442,VALID,111,VALID,0.0246094,
2002-02-25, 01:27:00,VALID,918.44,VALID,0,VALID,92.0362,VALID,-0.0339617,VALID,19.4639,VALID,111,VALID,0,
2002-02-25, 01:28:00,VALID,918.432,VALID,0,VALID,92.1532,VALID,0,VALID,19.405,VALID,111,VALID,0,
2002-02-25, 01:29:00,VALID,918.428,VALID,0,VALID,92.2816,VALID,-0.0169808,VALID,19.3896,VALID,111,VALID,0.160857,
2002-02-25, 01:30:01,VALID,918.425,VALID,0,VALID,92.5054,VALID,-0.0339617,VALID,19.3407,VALID,112,VALID,0.39412,
2002-02-25, 01:31:00,VALID,918.41,VALID,0,VALID,92.6288,VALID,-0.0339617,VALID,19.3156,VALID,135,VALID,0.252604,
2002-02-25, 01:32:00,VALID,918.388,VALID,0,VALID,93.1399,VALID,-0.0679233,VALID,19.3024,VALID,220,VALID,0.228824,
2002-02-25, 01:33:00,VALID,918.366,VALID,0,VALID,93.393,VALID,-0.0679233,VALID,19.283,VALID,220,VALID,0.13141,
2002-02-25, 01:34:01,VALID,918.347,VALID,0,VALID,93.4095,VALID,-0.0339617,VALID,19.2671,VALID,220,VALID,0,
2002-02-25, 01:35:00,VALID,918.32,VALID,0,VALID,93.5278,VALID,0,VALID,19.2346,VALID,220,VALID,0.00358953,
2002-02-25, 01:36:00,VALID,918.316,VALID,0,VALID,93.9754,VALID,-0.0169808,VALID,19.211,VALID,217,VALID,0.301562,
2002-02-25, 01:37:00,VALID,918.307,VALID,0,VALID,94.1115,VALID,-0.0169808,VALID,19.215,VALID,177,VALID,0.391827,
2002-02-25, 01:38:01,VALID,918.327,VALID,0,VALID,94.2348,VALID,-0.0509425,VALID,19.1889,VALID,175,VALID,0.0978618,
2002-02-25, 01:39:00,VALID,918.331,VALID,0,VALID,94.5336,VALID,-0.0339617,VALID,19.1698,VALID,175,VALID,0,
2002-02-25, 01:40:00,VALID,918.342,VALID,0,VALID,94.7206,VALID,-0.0679233,VALID,19.1668,VALID,175,VALID,0.000822368,
2002-02-25, 01:41:00,VALID,918.34,VALID,0,VALID,95.116,VALID,-0.0679233,VALID,19.1568,VALID,175,VALID,0.250801,
2002-02-25, 01:42:01,VALID,918.338,VALID,0,VALID,95.2254,VALID,-0.0679233,VALID,19.1698,VALID,156,VALID,0.705273,
2002-02-25, 01:43:00,VALID,918.343,VALID,0,VALID,95.2317,VALID,-0.101885,VALID,19.1573,VALID,151,VALID,0.584882,
2002-02-25, 01:44:00,VALID,918.337,VALID,0,VALID,95.3665,VALID,-0.0679233,VALID,19.131,VALID,154,VALID,0.476563,
2002-02-25, 01:45:00,VALID,918.323,VALID,0,VALID,95.5128,VALID,-0.0849042,VALID,19.1285,VALID,155,VALID,0.344351,
2002-02-25, 01:46:01,VALID,918.324,VALID,0,VALID,94.7867,VALID,-0.0849042,VALID,19.0604,VALID,130,VALID,0.3456,
2002-02-25, 01:47:00,VALID,918.315,VALID,0,VALID,93.1781,VALID,-0.0679233,VALID,18.8115,VALID,58,VALID,0.494992,
2002-02-25, 01:48:00,VALID,918.311,VALID,0,VALID,94.011,VALID,-0.0849042,VALID,18.6567,VALID,50,VALID,0.658923,
2002-02-25, 01:49:00,VALID,918.296,VALID,0,VALID,94.952,VALID,-0.0849042,VALID,18.6408,VALID,50,VALID,0.669671,
2002-02-25, 01:50:00,VALID,918.288,VALID,0,VALID,95.8764,VALID,-0.0679233,VALID,18.6632,VALID,54,VALID,0.796289,
2002-02-25, 01:51:00,VALID,918.282,VALID,0,VALID,96.5377,VALID,-0.0849042,VALID,18.7345,VALID,75,VALID,0.851351,
2002-02-25, 01:52:00,VALID,918.269,VALID,0,VALID,97.0247,VALID,-0.0679233,VALID,18.8053,VALID,98,VALID,0.733984,
2002-02-25, 01:53:00,VALID,918.245,VALID,0,VALID,97.2129,VALID,-0.0509425,VALID,18.8766,VALID,128,VALID,0.470553,
2002-02-25, 01:54:01,VALID,918.23,VALID,0,VALID,97.0285,VALID,-0.0679233,VALID,18.8955,VALID,154,VALID,0.634252,
2002-02-25, 01:55:00,VALID,918.205,VALID,0,VALID,96.9726,VALID,-0.0849042,VALID,18.8892,VALID,144,VALID,0.783854,
2002-02-25, 01:56:00,VALID,918.187,VALID,0,VALID,97.0158,VALID,-0.0509425,VALID,18.8927,VALID,145,VALID,0.849918,
2002-02-25, 01:57:00,VALID,918.179,VALID,0,VALID,96.937,VALID,-0.0679233,VALID,18.8959,VALID,119,VALID,0.625401,
2002-02-25, 01:58:01,VALID,918.164,VALID,0,VALID,97.0565,VALID,-0.0339617,VALID,18.8855,VALID,97,VALID,0.770898,
2002-02-25, 01:59:00,VALID,918.159,VALID,0,VALID,96.8708,VALID,-0.0169808,VALID,18.8729,VALID,66,VALID,0.945101,
2002-02-25, 02:00:00,VALID,918.167,VALID,0,VALID,96.7589,VALID,-0.0679233,VALID,18.8473,VALID,60,VALID,0.872461,
2002-02-25, 02:01:00,VALID,918.171,VALID,0,VALID,96.9471,VALID,-0.101885,VALID,18.8443,VALID,82,VALID,0.735978,
2002-02-25, 02:02:01,VALID,918.175,VALID,0,VALID,96.998,VALID,-0.0679233,VALID,18.89,VALID,95,VALID,0.782895,
2002-02-25, 02:03:00,VALID,918.174,VALID,0,VALID,96.7717,VALID,-0.118866,VALID,18.887,VALID,92,VALID,1.17909,
2002-02-25, 02:04:00,VALID,918.184,VALID,0,VALID,97.0641,VALID,-0.0509425,VALID,18.9024,VALID,89,VALID,1.20313,
2002-02-25, 02:05:00,VALID,918.179,VALID,0,VALID,97.2231,VALID,-0.0849042,VALID,18.9866,VALID,100,VALID,0.692909,
2002-02-25, 02:06:01,VALID,918.159,VALID,0,VALID,96.9993,VALID,-0.0849042,VALID,19.0355,VALID,125,VALID,0.602148,
2002-02-25, 02:07:00,VALID,918.152,VALID,0,VALID,96.7627,VALID,-0.101885,VALID,19.041,VALID,138,VALID,0.719383,
2002-02-25, 02:08:00,VALID,918.134,VALID,0,VALID,96.6636,VALID,-0.101885,VALID,19.051,VALID,120,VALID,0.857813,
2002-02-25, 02:09:00,VALID,918.128,VALID,0,VALID,96.7577,VALID,0,VALID,19.0798,VALID,117,VALID,0.888622,
2002-02-25, 02:10:01,VALID,918.105,VALID,0,VALID,96.8721,VALID,0.0169808,VALID,19.1335,VALID,117,VALID,0.660362,
2002-02-25, 02:11:00,VALID,918.092,VALID,0,VALID,96.7462,VALID,0.0509425,VALID,19.1787,VALID,117,VALID,0.380208,
2002-02-25, 02:12:00,VALID,918.079,VALID,0,VALID,96.4334,VALID,0.0339617,VALID,19.2046,VALID,140,VALID,0.45991,
2002-02-25, 02:13:00,VALID,918.068,VALID,0,VALID,96.0328,VALID,0,VALID,19.1921,VALID,152,VALID,0.641426,
2002-02-25, 02:14:00,VALID,918.067,VALID,0,VALID,95.8612,VALID,0.0169808,VALID,19.1626,VALID,148,VALID,0.563281,
2002-02-25, 02:15:00,VALID,918.066,VALID,0,VALID,95.8065,VALID,0.0339617,VALID,19.1531,VALID,139,VALID,0.707348,
2002-02-25, 02:16:00,VALID,918.074,VALID,0,VALID,95.9057,VALID,0.0339617,VALID,19.1432,VALID,137,VALID,0.881055,
2002-02-25, 02:17:00,VALID,918.055,VALID,0,VALID,95.893,VALID,0.0509425,VALID,19.1596,VALID,136,VALID,0.945313,
2002-02-25, 02:18:01,VALID,918.055,VALID,0,VALID,95.6641,VALID,0.0509425,VALID,19.1335,VALID,119,VALID,0.983553,
2002-02-25, 02:19:00,VALID,918.053,VALID,0,VALID,96.0532,VALID,0.0169808,VALID,19.1462,VALID,142,VALID,0.889824,
2002-02-25, 02:20:00,VALID,918.049,VALID,0,VALID,95.9298,VALID,0.0339617,VALID,19.1755,VALID,151,VALID,0.82463,
2002-02-25, 02:21:00,VALID,918.046,VALID,0,VALID,95.7633,VALID,0.0169808,VALID,19.1889,VALID,142,VALID,0.958934,
2002-02-25, 02:22:01,VALID,918.077,VALID,0,VALID,95.9731,VALID,0.0169808,VALID,19.2085,VALID,142,VALID,1.00762,
2002-02-25, 02:23:00,VALID,918.07,VALID,0,VALID,95.8192,VALID,0.0339617,VALID,19.2339,VALID,130,VALID,0.819468,
2002-02-25, 02:24:00,VALID,918.075,VALID,0,VALID,95.4848,VALID,0.0339617,VALID,19.2503,VALID,123,VALID,0.739648,
2002-02-25, 02:25:00,VALID,918.053,VALID,0,VALID,95.0207,VALID,0,VALID,19.2234,VALID,117,VALID,0.622596,
2002-02-25, 02:26:01,VALID,918.022,VALID,0,VALID,93.9589,VALID,0.0339617,VALID,19.1337,VALID,76,VALID,0.568873,
2002-02-25, 02:27:00,VALID,917.99,VALID,0,VALID,93.1488,VALID,0.0339617,VALID,18.9268,VALID,43,VALID,1.11138,
2002-02-25, 02:28:00,VALID,917.959,VALID,0,VALID,94.0784,VALID,0.0169808,VALID,18.8173,VALID,45,VALID,1.1285,
2002-02-25, 02:29:00,VALID,917.925,VALID,0,VALID,95.0753,VALID,0.0169808,VALID,18.7976,VALID,53,VALID,1.23998,
2002-02-25, 02:30:01,VALID,917.915,VALID,0,VALID,95.6806,VALID,0.0339617,VALID,18.8396,VALID,56,VALID,1.09766,
2002-02-25, 02:31:00,VALID,917.916,VALID,0,VALID,96.1206,VALID,0,VALID,18.9174,VALID,56,VALID,0.993666,
2002-02-25, 02:32:00,VALID,917.911,VALID,0,VALID,95.9883,VALID,0.0169808,VALID,18.9695,VALID,47,VALID,1.05625,
2002-02-25, 02:33:00,VALID,917.922,VALID,0,VALID,95.9629,VALID,0.0169808,VALID,18.9787,VALID,76,VALID,0.944311,
2002-02-25, 02:34:01,VALID,917.918,VALID,0,VALID,96.0723,VALID,0.0679233,VALID,19.0403,VALID,97,VALID,1.20539,
2002-02-25, 02:35:00,VALID,917.908,VALID,0,VALID,95.8192,VALID,0.0509425,VALID,19.0684,VALID,98,VALID,1.29407,
2002-02-25, 02:36:00,VALID,917.891,VALID,0,VALID,95.5267,VALID,0.0339617,VALID,19.0915,VALID,93,VALID,1.25247,
2002-02-25, 02:37:00,VALID,917.868,VALID,0,VALID,95.3487,VALID,0.0339617,VALID,19.1007,VALID,92,VALID,1.32171,
2002-02-25, 02:38:00,VALID,917.84,VALID,0,VALID,95.4937,VALID,0.0509425,VALID,19.13,VALID,98,VALID,1.6625,
2002-02-25, 02:39:00,VALID,917.811,VALID,0,VALID,95.1923,VALID,0.0339617,VALID,19.1596,VALID,89,VALID,1.17314,
2002-02-25, 02:40:00,VALID,917.811,VALID,0,VALID,94.9355,VALID,-0.0169808,VALID,19.1409,VALID,90,VALID,1.06465,
2002-02-25, 02:41:00,VALID,917.797,VALID,0,VALID,95.0117,VALID,0,VALID,19.1248,VALID,100,VALID,0.946514,
2002-02-25, 02:42:01,VALID,917.785,VALID,0,VALID,95.3297,VALID,-0.0169808,VALID,19.1377,VALID,115,VALID,0.640008,
2002-02-25, 02:43:00,VALID,917.778,VALID,0,VALID,95.2139,VALID,0,VALID,19.1377,VALID,110,VALID,0.480168,
2002-02-25, 02:44:00,VALID,917.784,VALID,0,VALID,95.0893,VALID,-0.0169808,VALID,19.1181,VALID,118,VALID,0.373561,
2002-02-25, 02:45:00,VALID,917.775,VALID,0,VALID,95.0893,VALID,-0.0339617,VALID,19.122,VALID,122,VALID,0.721354,
2002-02-25, 02:46:01,VALID,917.759,VALID,0,VALID,95.2241,VALID,-0.0169808,VALID,19.1223,VALID,96,VALID,0.423047,
2002-02-25, 02:47:00,VALID,917.753,VALID,0,VALID,95.0156,VALID,-0.0339617,VALID,19.0867,VALID,104,VALID,0.657939,
2002-02-25, 02:48:00,VALID,917.713,VALID,0,VALID,95.1338,VALID,-0.0169808,VALID,19.0701,VALID,122,VALID,0.767383,
2002-02-25, 02:49:00,VALID,917.662,VALID,0,VALID,95.4886,VALID,0,VALID,19.0867,VALID,127,VALID,1.03806,
2002-02-25, 02:50:01,VALID,917.618,VALID,0,VALID,95.5535,VALID,-0.0679233,VALID,19.1091,VALID,123,VALID,0.944285,
2002-02-25, 02:51:01,VALID,917.589,VALID,0,VALID,95.3742,VALID,-0.0169808,VALID,19.1188,VALID,126,VALID,1.00681,
2002-02-25, 02:52:00,VALID,917.567,VALID,0,VALID,95.364,VALID,-0.0339617,VALID,19.1153,VALID,133,VALID,0.943873,
2002-02-25, 02:53:01,VALID,917.57,VALID,0,VALID,95.3856,VALID,-0.0509425,VALID,19.1315,VALID,143,VALID,1.01182,
2002-02-25, 02:54:01,VALID,917.571,VALID,0,VALID,95.2572,VALID,0,VALID,19.1513,VALID,150,VALID,0.682031,
2002-02-25, 02:55:00,VALID,917.592,VALID,0,VALID,95.2216,VALID,-0.0169808,VALID,19.1543,VALID,153,VALID,0.549198,
2002-02-25, 02:56:00,VALID,917.609,VALID,0,VALID,95.0931,VALID,-0.0169808,VALID,19.1409,VALID,166,VALID,0.711328,
2002-02-25, 02:57:01,VALID,917.618,VALID,0,VALID,94.9596,VALID,0,VALID,19.1282,VALID,172,VALID,0.821514,
2002-02-25, 02:58:01,VALID,917.607,VALID,0,VALID,94.8668,VALID,-0.0169808,VALID,19.1156,VALID,172,VALID,1.06579,
2002-02-25, 02:59:01,VALID,917.597,VALID,0,VALID,94.9774,VALID,-0.0339617,VALID,19.1091,VALID,165,VALID,1.17829,
2002-02-25, 03:00:01,VALID,917.569,VALID,0,VALID,95.0537,VALID,-0.0509425,VALID,19.1091,VALID,155,VALID,1.31476,
2002-02-25, 03:01:01,VALID,917.554,VALID,0,VALID,94.882,VALID,-0.0339617,VALID,19.1029,VALID,142,VALID,0.654647,
2002-02-25, 03:02:01,VALID,917.547,VALID,0,VALID,94.8236,VALID,-0.0169808,VALID,19.0803,VALID,119,VALID,0.851953,
2002-02-25, 03:03:01,VALID,917.542,VALID,0,VALID,95.1453,VALID,-0.0679233,VALID,19.0738,VALID,127,VALID,1.04899,
2002-02-25, 03:04:01,VALID,917.508,VALID,0,VALID,95.4352,VALID,-0.0509425,VALID,19.1064,VALID,146,VALID,1.32988,
2002-02-25, 03:05:01,VALID,917.482,VALID,0,VALID,95.3538,VALID,-0.0339617,VALID,19.132,VALID,123,VALID,0.691106,
2002-02-25, 03:06:01,VALID,917.488,VALID,0,VALID,94.9889,VALID,-0.0679233,VALID,19.1481,VALID,117,VALID,0.938322,
2002-02-25, 03:07:01,VALID,917.491,VALID,0,VALID,95.1809,VALID,-0.0509425,VALID,19.171,VALID,142,VALID,1.28345,
2002-02-25, 03:08:01,VALID,917.501,VALID,0,VALID,95.0346,VALID,-0.0679233,VALID,19.1961,VALID,140,VALID,1.20498,
2002-02-25, 03:09:01,VALID,917.531,VALID,0,VALID,94.7587,VALID,0,VALID,19.2088,VALID,138,VALID,1.03385,
2002-02-25, 03:10:01,VALID,917.536,VALID,0,VALID,94.6013,VALID,0.0849042,VALID,19.2242,VALID,116,VALID,0.76398,
2002-02-25, 03:11:01,VALID,917.536,VALID,0,VALID,94.7028,VALID,0.0339617,VALID,19.2401,VALID,100,VALID,0.825169,
2002-02-25, 03:12:01,VALID,917.535,VALID,0,VALID,94.7854,VALID,0.0849042,VALID,19.2853,VALID,115,VALID,1.10176,
2002-02-25, 03:13:01,VALID,917.556,VALID,0,VALID,94.5298,VALID,0.0849042,VALID,19.3501,VALID,130,VALID,1.24479,
2002-02-25, 03:14:01,VALID,917.558,VALID,0,VALID,94.1725,VALID,0.0679233,VALID,19.3884,VALID,132,VALID,0.9706,
2002-02-25, 03:15:01,VALID,917.565,VALID,0,VALID,94.0174,VALID,0.0679233,VALID,19.4078,VALID,139,VALID,1.00681,
2002-02-25, 03:16:01,VALID,917.561,VALID,0,VALID,93.9271,VALID,0.101885,VALID,19.4274,VALID,137,VALID,1.0588,
2002-02-25, 03:17:00,VALID,917.57,VALID,0,VALID,93.8088,VALID,0.0169808,VALID,19.4465,VALID,140,VALID,1.08814,
2002-02-25, 03:18:00,VALID,917.575,VALID,0,VALID,93.8584,VALID,0.0849042,VALID,19.4818,VALID,124,VALID,1.23184,
2002-02-25, 03:19:00,VALID,917.576,VALID,0,VALID,93.5545,VALID,0.0679233,VALID,19.5437,VALID,109,VALID,1.31588,
2002-02-25, 03:20:00,VALID,917.584,VALID,0,VALID,93.3129,VALID,0.0849042,VALID,19.6051,VALID,115,VALID,1.42754,
2002-02-25, 03:21:00,VALID,917.588,VALID,0,VALID,92.967,VALID,0.0339617,VALID,19.6441,VALID,131,VALID,1.09696,
2002-02-25, 03:22:00,VALID,917.57,VALID,0,VALID,92.9034,VALID,0.0849042,VALID,19.6664,VALID,134,VALID,1.10917,
2002-02-25, 03:23:00,VALID,917.542,VALID,0,VALID,92.7165,VALID,0.0509425,VALID,19.6953,VALID,135,VALID,0.98117,
2002-02-25, 03:24:00,VALID,917.506,VALID,0,VALID,92.644,VALID,0.0339617,VALID,19.7089,VALID,88,VALID,1.49013,
2002-02-25, 03:25:00,VALID,917.514,VALID,0,VALID,92.6046,VALID,-0.0679233,VALID,19.7549,VALID,94,VALID,1.59675,
2002-02-25, 03:26:00,VALID,917.507,VALID,0,VALID,92.5385,VALID,-0.0679233,VALID,19.7872,VALID,105,VALID,1.23145,
2002-02-25, 03:27:00,VALID,917.5,VALID,0,VALID,92.6771,VALID,-0.0169808,VALID,19.8168,VALID,119,VALID,1.51816,
2002-02-25, 03:28:00,VALID,917.507,VALID,0,VALID,92.3427,VALID,-0.0339617,VALID,19.8289,VALID,95,VALID,1.10645,
2002-02-25, 03:29:00,VALID,917.534,VALID,0,VALID,92.719,VALID,-0.0339617,VALID,19.8225,VALID,121,VALID,1.77925,
2002-02-25, 03:30:00,VALID,917.556,VALID,0,VALID,92.5779,VALID,-0.0679233,VALID,19.8424,VALID,135,VALID,1.67311,
2002-02-25, 03:31:00,VALID,917.562,VALID,0,VALID,92.541,VALID,0,VALID,19.8617,VALID,139,VALID,1.29968,